Regional Weather Roundup
Issued by NWS Cleveland, OH

Home | Current Version | Previous Version | Graphics & Text | Print | Product List | Glossary On
Versions: 1 2 3 4 5 6 7 8 9 10 11 12 13 14 15 16 17 18 19 20 21 22 23 24 25 26 27 28 29 30 31 32 33 34 35 36 37 38 39 40 41 42 43 44 45 46 47 48 49 50
455
ASUS41 KCLE 280812
RWRCLE
OHIO REGIONAL WEATHER ROUNDUP
NATIONAL WEATHER SERVICE WILMINGTON, OH
400 AM EDT SUN MAY 28 2017

NOTE: "FAIR" INDICATES FEW OR NO CLOUDS BELOW 12,000 FEET WITH NO
SIGNIFICANT WEATHER AND/OR OBSTRUCTIONS TO VISIBILITY.

OHZ001>008-015>018-024>027-034-035-043-044-280900-
   NORTHWEST OHIO

CITY           SKY/WX    TMP DP  RH WIND       PRES   REMARKS
DEFIANCE       FAIR      57  52  83 E6        29.80F
FINDLAY        FAIR      62  53  72 E7        29.81S
TOLEDO EXPRESS FAIR      57  54  89 CALM      29.82S
TOLEDO EXEC    MOCLDY    61  56  83 NE3       29.84R
LIMA           FAIR      61  58  90 NE3       29.80F
$$

OHZ009>014-019>023-028>033-038-089-280900-
   NORTHEAST OHIO

CITY           SKY/WX    TMP DP  RH WIND       PRES   REMARKS
CLE-HOPKINS    MOCLDY    61  50  67 SE5       29.85S
CLE-LAKEFRONT  MOCLDY    61  50  67 CALM      29.82F
CUY CO. ARPT   NOT AVBL
LORAIN-ELYRIA  FAIR      58  50  75 CALM      29.84S
ASHTABULA      FAIR      50  50 100 CALM      29.86F
AKRON-CANTON   FAIR      59  51  75 E6        29.85R
WOOSTER        CLOUDY    58  54  86 E3        29.84S
MANSFIELD      FAIR      58  54  86 SE7       29.83S
YOUNGSTOWN     MOCLDY    56  52  86 CALM      29.86S
$$

OHZ042-051>053-060>062-070>072-077>081-280900-
  SOUTHWEST OHIO

CITY           SKY/WX    TMP DP  RH WIND       PRES   REMARKS
CINC-COVINGTON CLOUDY    62  61  96 S5        29.78F
CINC-LUNKEN    FAIR      64  62  93 SW5       29.80F
HAMILTON       FAIR      67  63  87 S3        29.78F
DAYTON         FAIR      64  62  93 CALM      29.79F
WRIGHT-PAT AFB FAIR      65  65 100 NE3       29.78F
DAYTON GENERAL FAIR      66  63  90 SW5       29.79S
WILMINGTON     FAIR      63  63 100 SW7       29.80R
$$

OHZ036-037-039>041-045>050-054>059-063>069-073>076-082>088-280900-
  CENTRAL AND SOUTHEAST OHIO

CITY           SKY/WX    TMP DP  RH WIND       PRES   REMARKS
COLUMBUS       CLOUDY    68  66  93 E9        29.79R
OSU AIRPORT    FAIR      65  64  97 E3        29.79F
BOLTON FIELD   CLOUDY    67  66  97 SE3       29.80F
RICKENBACK AFB CLOUDY    66  66 100 E3        29.79F
NEWARK         CLOUDY    66  63  90 CALM      29.82R
MARION         CLOUDY    63  58  83 CALM      29.82S
LANCASTER      CLOUDY    69  65  86 E3        29.81R
ZANESVILLE     CLOUDY    67  63  87 CALM      29.82R
NEW PHILLY     MOCLDY    61  60  97 CALM      29.85R FOG
$$




USA.gov is the U.S. government's official web portal to all federal, state and local government web resources and services.